Time,TemperatureF,DewpointF,PressureIn,WindDirection,WindDirectionDegrees,WindSpeedMPH,WindSpeedGustMPH,Humidity,HourlyPrecipIn,Conditions,Clouds,dailyrainin,SoftwareType,DateUTC
2013-06-08 00:01:00,66.4,65.8,29.33,South,180,0.0,0.0,98,0.01,RA,FEW,0.00,WeatherDisplay:10.37,2013-06-08 04:01:00,
2013-06-08 00:02:00,66.4,65.8,29.33,South,180,0.0,0.0,98,0.01,RA,FEW,0.00,WeatherDisplay:10.37,2013-06-08 04:02:00,
2013-06-08 00:07:00,66.4,65.8,29.33,South,180,0.0,0.0,98,0.00,RA,FEW,0.00,WeatherDisplay:10.37,2013-06-08 04:07:00,
2013-06-08 00:12:00,66.4,66.1,29.34,East,90,1.2,0.0,99,0.00,CLR,FEW,0.00,WeatherDisplay:10.37,2013-06-08 04:12:00,
2013-06-08 00:17:00,66.4,66.1,29.33,East,90,0.0,0.0,99,0.00,CLR,FEW,0.00,WeatherDisplay:10.37,2013-06-08 04:17:00,
2013-06-08 00:23:00,66.4,66.1,29.33,East,90,1.2,0.0,99,0.00,CLR,FEW,0.00,WeatherDisplay:10.37,2013-06-08 04:23:00,
2013-06-08 00:28:00,66.4,66.1,29.33,East,90,0.0,0.0,99,0.00,CLR,FEW,0.00,WeatherDisplay:10.37,2013-06-08 04:28:00,
2013-06-08 00:33:00,66.4,66.1,29.33,East,90,0.0,0.0,99,0.00,CLR,FEW,0.00,WeatherDisplay:10.37,2013-06-08 04:33:00,
2013-06-08 00:38:00,66.6,66.3,29.34,East,90,0.0,0.0,99,0.00,CLR,FEW,0.00,WeatherDisplay:10.37,2013-06-08 04:38:00,
2013-06-08 00:43:00,66.6,66.3,29.33,East,90,0.0,0.0,99,0.00,CLR,FEW,0.00,WeatherDisplay:10.37,2013-06-08 04:43:00,
2013-06-08 00:48:00,66.6,66.3,29.33,NW,315,1.2,0.0,99,0.00,CLR,FEW,0.00,WeatherDisplay:10.37,2013-06-08 04:48:00,
2013-06-08 00:53:00,66.6,66.3,29.33,NW,315,1.2,0.0,99,0.00,CLR,FEW,0.00,WeatherDisplay:10.37,2013-06-08 04:53:00,
2013-06-08 00:58:00,66.6,66.3,29.33,South,180,0.0,0.0,99,0.00,CLR,FEW,0.00,WeatherDisplay:10.37,2013-06-08 04:58:00,
2013-06-08 01:03:00,66.6,66.3,29.33,SE,135,0.0,0.0,99,0.00,CLR,FEW,0.00,WeatherDisplay:10.37,2013-06-08 05:03:00,
2013-06-08 01:08:00,66.6,66.3,29.33,SE,135,0.0,0.0,99,0.00,CLR,FEW,0.00,WeatherDisplay:10.37,2013-06-08 05:08:00,
2013-06-08 01:13:00,66.6,66.3,29.34,SE,135,0.0,0.0,99,0.00,CLR,FEW,0.00,WeatherDisplay:10.37,2013-06-08 05:13:00,
2013-06-08 01:18:00,66.6,66.3,29.34,NW,315,0.0,0.0,99,0.00,CLR,FEW,0.00,WeatherDisplay:10.37,2013-06-08 05:18:00,
2013-06-08 01:23:00,66.6,66.3,29.35,NW,315,0.0,0.0,99,0.00,CLR,FEW,0.00,WeatherDisplay:10.37,2013-06-08 05:23:00,
2013-06-08 01:28:00,66.7,66.5,29.35,NW,315,1.2,0.0,99,0.00,CLR,FEW,0.00,WeatherDisplay:10.37,2013-06-08 05:28:00,
2013-06-08 01:33:00,66.6,66.3,29.36,SE,135,1.2,0.0,99,0.00,CLR,FEW,0.00,WeatherDisplay:10.37,2013-06-08 05:33:00,
2013-06-08 01:38:00,66.6,66.3,29.35,SE,135,1.2,0.0,99,0.00,CLR,FEW,0.00,WeatherDisplay:10.37,2013-06-08 05:38:00,
2013-06-08 01:43:00,66.4,66.1,29.34,SE,135,1.2,0.0,99,0.00,CLR,FEW,0.00,WeatherDisplay:10.37,2013-06-08 05:43:00,
2013-06-08 01:48:00,66.4,66.1,29.34,SE,135,0.0,0.0,99,0.00,CLR,FEW,0.00,WeatherDisplay:10.37,2013-06-08 05:48:00,
2013-06-08 01:53:00,66.2,65.9,29.35,SE,135,0.0,0.0,99,0.00,CLR,FEW,0.00,WeatherDisplay:10.37,2013-06-08 05:53:00,
2013-06-08 01:58:00,66.4,66.1,29.34,SE,135,0.0,0.0,99,0.00,CLR,FEW,0.00,WeatherDisplay:10.37,2013-06-08 05:58:00,
2013-06-08 02:03:00,66.4,66.1,29.34,NE,45,1.2,0.0,99,0.00,CLR,FEW,0.00,WeatherDisplay:10.37,2013-06-08 06:03:00,
2013-06-08 02:08:00,66.7,66.5,29.34,NE,45,1.2,0.0,99,0.00,CLR,FEW,0.00,WeatherDisplay:10.37,2013-06-08 06:08:00,
2013-06-08 02:13:00,66.7,66.5,29.34,East,90,0.0,0.0,99,0.00,CLR,FEW,0.00,WeatherDisplay:10.37,2013-06-08 06:13:00,
2013-06-08 02:18:00,66.7,66.5,29.34,SE,135,1.2,0.0,99,0.00,CLR,FEW,0.00,WeatherDisplay:10.37,2013-06-08 06:18:00,
2013-06-08 02:23:00,66.7,66.5,29.34,SE,135,0.0,0.0,99,0.00,CLR,FEW,0.00,WeatherDisplay:10.37,2013-06-08 06:23:00,
2013-06-08 02:28:00,66.7,66.5,29.34,SE,135,0.0,0.0,99,0.00,CLR,FEW,0.00,WeatherDisplay:10.37,2013-06-08 06:28:00,
2013-06-08 02:33:00,66.7,66.5,29.34,SE,135,0.0,0.0,99,0.00,CLR,FEW,0.00,WeatherDisplay:10.37,2013-06-08 06:33:00,
2013-06-08 02:38:00,66.6,66.3,29.34,SE,135,0.0,0.0,99,0.00,CLR,FEW,0.00,WeatherDisplay:10.37,2013-06-08 06:38:00,
2013-06-08 02:43:00,66.7,66.5,29.34,NW,315,0.0,0.0,99,0.00,CLR,FEW,0.00,WeatherDisplay:10.37,2013-06-08 06:43:00,
2013-06-08 02:48:00,66.7,66.5,29.34,SW,225,0.0,0.0,99,0.00,CLR,FEW,0.00,WeatherDisplay:10.37,2013-06-08 06:48:00,
2013-06-08 02:53:00,66.9,66.6,29.36,NW,315,0.0,0.0,99,0.00,CLR,FEW,0.00,WeatherDisplay:10.37,2013-06-08 06:53:00,
2013-06-08 02:58:00,66.9,66.6,29.35,NW,315,0.0,0.0,99,0.00,CLR,FEW,0.00,WeatherDisplay:10.37,2013-06-08 06:58:00,
2013-06-08 03:03:00,66.7,66.5,29.36,South,180,0.0,0.0,99,0.00,CLR,FEW,0.00,WeatherDisplay:10.37,2013-06-08 07:03:00,
2013-06-08 03:08:00,66.7,66.5,29.35,South,180,0.0,0.0,99,0.00,CLR,FEW,0.00,WeatherDisplay:10.37,2013-06-08 07:08:00,
2013-06-08 03:13:00,66.7,66.5,29.36,West,270,0.0,0.0,99,0.00,CLR,FEW,0.00,WeatherDisplay:10.37,2013-06-08 07:13:00,
2013-06-08 03:18:00,66.7,66.5,29.35,West,270,0.0,0.0,99,0.00,CLR,FEW,0.00,WeatherDisplay:10.37,2013-06-08 07:18:00,
2013-06-08 03:23:00,66.7,66.5,29.35,West,270,0.0,0.0,99,0.00,CLR,FEW,0.00,WeatherDisplay:10.37,2013-06-08 07:23:00,
2013-06-08 03:28:00,66.9,66.6,29.34,West,270,0.0,0.0,99,0.00,CLR,FEW,0.00,WeatherDisplay:10.37,2013-06-08 07:28:00,
2013-06-08 03:33:00,66.7,66.5,29.34,West,270,0.0,0.0,99,0.00,CLR,FEW,0.00,WeatherDisplay:10.37,2013-06-08 07:33:00,
2013-06-08 03:38:00,66.6,66.3,29.34,West,270,0.0,0.0,99,0.00,CLR,FEW,0.00,WeatherDisplay:10.37,2013-06-08 07:38:00,
2013-06-08 03:43:00,66.2,65.9,29.34,SE,135,0.0,0.0,99,0.00,CLR,FEW,0.00,WeatherDisplay:10.37,2013-06-08 07:43:00,
2013-06-08 03:48:00,66.2,65.9,29.34,SE,135,1.2,1.2,99,0.00,CLR,FEW,0.00,WeatherDisplay:10.37,2013-06-08 07:48:00,
2013-06-08 03:53:00,66.2,65.9,29.34,East,90,1.2,0.0,99,0.00,CLR,FEW,0.00,WeatherDisplay:10.37,2013-06-08 07:53:00,
2013-06-08 03:58:00,66.2,65.9,29.33,East,90,0.0,0.0,99,0.00,CLR,FEW,0.00,WeatherDisplay:10.37,2013-06-08 07:58:00,
2013-06-08 04:03:00,66.2,65.9,29.33,East,90,1.2,0.0,99,0.00,CLR,FEW,0.00,WeatherDisplay:10.37,2013-06-08 08:03:00,
2013-06-08 04:08:00,66.4,66.1,29.34,NW,315,1.2,0.0,99,0.00,CLR,FEW,0.00,WeatherDisplay:10.37,2013-06-08 08:08:00,
2013-06-08 04:13:00,66.4,66.1,29.35,NW,315,1.2,0.0,99,0.01,RA,FEW,0.01,WeatherDisplay:10.37,2013-06-08 08:13:00,
2013-06-08 04:18:00,66.6,66.3,29.36,NW,315,1.2,0.0,99,0.01,RA,FEW,0.01,WeatherDisplay:10.37,2013-06-08 08:18:00,
2013-06-08 04:23:00,66.6,66.3,29.36,NW,315,1.2,0.0,99,0.01,CLR,FEW,0.01,WeatherDisplay:10.37,2013-06-08 08:23:00,
2013-06-08 04:28:00,66.4,66.1,29.36,NW,315,1.6,1.6,99,0.02,RA,FEW,0.02,WeatherDisplay:10.37,2013-06-08 08:28:00,
2013-06-08 04:33:00,66.4,66.1,29.37,NW,315,3.5,0.0,99,0.02,RA,FEW,0.02,WeatherDisplay:10.37,2013-06-08 08:33:00,
2013-06-08 04:38:00,66.2,65.9,29.37,NW,315,1.2,0.0,99,0.05,RA,FEW,0.05,WeatherDisplay:10.37,2013-06-08 08:38:00,
2013-06-08 04:43:00,66.0,65.7,29.37,South,180,2.3,0.0,99,0.09,RA,FEW,0.11,WeatherDisplay:10.37,2013-06-08 08:43:00,
2013-06-08 04:48:00,65.5,65.2,29.38,SE,135,2.3,2.3,99,0.19,RA,FEW,0.20,WeatherDisplay:10.37,2013-06-08 08:48:00,
2013-06-08 04:53:00,64.6,64.3,29.38,NW,315,2.3,2.3,99,0.26,RA,FEW,0.27,WeatherDisplay:10.37,2013-06-08 08:53:00,
2013-06-08 04:58:00,64.0,63.2,29.38,West,270,1.2,0.0,97,0.31,RA,FEW,0.32,WeatherDisplay:10.37,2013-06-08 08:58:00,
2013-06-08 05:04:00,63.7,62.8,29.39,South,180,1.2,0.0,97,0.34,RA,FEW,0.34,WeatherDisplay:10.37,2013-06-08 09:04:00,
2013-06-08 05:09:00,63.5,62.6,29.38,West,270,1.2,0.0,97,0.40,RA,FEW,0.40,WeatherDisplay:10.37,2013-06-08 09:09:00,
2013-06-08 05:14:00,63.5,62.6,29.38,SW,225,1.2,0.0,97,0.41,RA,FEW,0.43,WeatherDisplay:10.37,2013-06-08 09:14:00,
2013-06-08 05:19:00,63.5,62.6,29.38,NW,315,0.0,0.0,97,0.41,RA,FEW,0.43,WeatherDisplay:10.37,2013-06-08 09:19:00,
2013-06-08 05:24:00,63.5,62.6,29.38,NW,315,2.3,2.3,97,0.43,RA,FEW,0.44,WeatherDisplay:10.37,2013-06-08 09:24:00,
2013-06-08 05:29:00,63.7,62.8,29.38,SW,225,1.2,0.0,97,0.41,RA,FEW,0.44,WeatherDisplay:10.37,2013-06-08 09:29:00,
2013-06-08 05:34:00,63.7,62.8,29.39,NW,315,1.2,1.2,97,0.41,CLR,FEW,0.44,WeatherDisplay:10.37,2013-06-08 09:34:00,
2013-06-08 05:39:00,64.0,63.2,29.40,NW,315,1.2,0.0,97,0.39,CLR,FEW,0.44,WeatherDisplay:10.37,2013-06-08 09:39:00,
2013-06-08 05:44:00,63.9,63.0,29.40,NW,315,1.2,0.0,97,0.33,CLR,FEW,0.44,WeatherDisplay:10.37,2013-06-08 09:44:00,
2013-06-08 05:49:00,63.7,62.8,29.40,SE,135,0.0,0.0,97,0.25,CLR,FEW,0.44,WeatherDisplay:10.37,2013-06-08 09:49:00,
2013-06-08 05:54:00,63.7,62.8,29.41,East,90,0.0,0.0,97,0.17,CLR,FEW,0.44,WeatherDisplay:10.37,2013-06-08 09:54:00,
2013-06-08 05:59:00,63.9,63.0,29.40,NW,315,1.2,0.0,97,0.12,CLR,FEW,0.44,WeatherDisplay:10.37,2013-06-08 09:59:00,
2013-06-08 06:04:00,63.9,63.0,29.40,NW,315,1.2,0.0,97,0.09,CLR,FEW,0.44,WeatherDisplay:10.37,2013-06-08 10:04:00,
2013-06-08 06:09:00,63.9,63.0,29.41,NW,315,1.2,0.0,97,0.04,CLR,FEW,0.44,WeatherDisplay:10.37,2013-06-08 10:09:00,
2013-06-08 06:14:00,63.9,63.0,29.41,NW,315,1.2,0.0,97,0.01,CLR,FEW,0.44,WeatherDisplay:10.37,2013-06-08 10:14:00,
2013-06-08 06:19:00,63.9,63.0,29.41,NW,315,1.2,0.0,97,0.01,CLR,FEW,0.44,WeatherDisplay:10.37,2013-06-08 10:19:00,
2013-06-08 06:24:00,63.9,63.0,29.41,South,180,0.0,0.0,97,0.00,CLR,FEW,0.44,WeatherDisplay:10.37,2013-06-08 10:24:00,
2013-06-08 06:29:00,63.9,63.0,29.41,SW,225,0.0,0.0,97,0.00,CLR,FEW,0.44,WeatherDisplay:10.37,2013-06-08 10:29:00,
2013-06-08 06:34:00,64.0,63.2,29.41,East,90,0.0,0.0,97,0.00,CLR,FEW,0.45,WeatherDisplay:10.37,2013-06-08 10:34:00,
2013-06-08 06:39:00,64.0,63.2,29.41,SE,135,1.2,0.0,97,0.01,RA,FEW,0.45,WeatherDisplay:10.37,2013-06-08 10:39:00,
2013-06-08 06:44:00,64.0,63.2,29.41,NE,45,0.0,0.0,97,0.01,RA,FEW,0.45,WeatherDisplay:10.37,2013-06-08 10:44:00,
2013-06-08 06:49:00,64.0,63.2,29.41,NE,45,0.0,0.0,97,0.01,CLR,FEW,0.45,WeatherDisplay:10.37,2013-06-08 10:49:00,
2013-06-08 06:54:00,64.0,63.2,29.41,NE,45,0.0,0.0,97,0.01,CLR,FEW,0.45,WeatherDisplay:10.37,2013-06-08 10:54:00,
2013-06-08 06:59:00,64.0,63.2,29.42,NE,45,0.0,0.0,97,0.01,CLR,FEW,0.45,WeatherDisplay:10.37,2013-06-08 10:59:00,
2013-06-08 07:04:00,64.0,63.2,29.42,NE,45,0.0,0.0,97,0.01,CLR,FEW,0.45,WeatherDisplay:10.37,2013-06-08 11:04:00,
2013-06-08 07:09:00,64.0,63.2,29.42,NW,315,1.2,0.0,97,0.01,CLR,FEW,0.45,WeatherDisplay:10.37,2013-06-08 11:09:00,
2013-06-08 07:14:00,64.0,63.2,29.42,NW,315,1.2,1.2,97,0.01,CLR,FEW,0.45,WeatherDisplay:10.37,2013-06-08 11:14:00,
2013-06-08 07:19:00,64.0,63.2,29.43,North,0,1.2,0.0,97,0.01,CLR,FEW,0.45,WeatherDisplay:10.37,2013-06-08 11:19:00,
2013-06-08 07:24:00,64.0,63.2,29.43,NW,315,1.2,0.0,97,0.01,CLR,FEW,0.45,WeatherDisplay:10.37,2013-06-08 11:24:00,
2013-06-08 07:29:00,64.0,63.2,29.43,North,0,1.2,0.0,97,0.01,CLR,FEW,0.45,WeatherDisplay:10.37,2013-06-08 11:29:00,
2013-06-08 07:34:00,63.9,63.0,29.43,NW,315,1.2,0.0,97,0.01,CLR,FEW,0.45,WeatherDisplay:10.37,2013-06-08 11:34:00,
2013-06-08 07:39:00,63.7,62.8,29.43,NW,315,0.0,0.0,97,0.00,CLR,FEW,0.45,WeatherDisplay:10.37,2013-06-08 11:39:00,
2013-06-08 07:44:00,63.7,62.8,29.43,NW,315,1.2,0.0,97,0.00,CLR,FEW,0.45,WeatherDisplay:10.37,2013-06-08 11:44:00,
2013-06-08 07:49:00,63.9,63.0,29.43,NW,315,0.0,0.0,97,0.01,RA,FEW,0.46,WeatherDisplay:10.37,2013-06-08 11:49:00,
2013-06-08 07:54:00,64.0,63.2,29.44,NW,315,0.0,0.0,97,0.01,RA,FEW,0.46,WeatherDisplay:10.37,2013-06-08 11:54:00,
2013-06-08 07:59:00,64.2,63.4,29.43,East,90,1.2,0.0,97,0.01,CLR,FEW,0.46,WeatherDisplay:10.37,2013-06-08 11:59:00,
2013-06-08 08:04:00,64.4,64.1,29.43,East,90,0.0,0.0,99,0.01,CLR,FEW,0.46,WeatherDisplay:10.37,2013-06-08 12:04:00,
2013-06-08 08:09:00,64.4,64.1,29.44,NW,315,1.2,0.0,99,0.01,CLR,FEW,0.46,WeatherDisplay:10.37,2013-06-08 12:09:00,
2013-06-08 08:14:00,64.6,64.3,29.44,NW,315,0.0,0.0,99,0.01,CLR,FEW,0.46,WeatherDisplay:10.37,2013-06-08 12:14:00,
2013-06-08 08:19:00,64.9,64.7,29.44,NW,315,0.0,0.0,99,0.01,CLR,FEW,0.46,WeatherDisplay:10.37,2013-06-08 12:19:00,
2013-06-08 08:24:00,65.1,64.8,29.44,West,270,1.2,0.0,99,0.01,CLR,FEW,0.46,WeatherDisplay:10.37,2013-06-08 12:24:00,
2013-06-08 08:29:00,65.3,65.0,29.44,NW,315,1.2,0.0,99,0.01,CLR,FEW,0.46,WeatherDisplay:10.37,2013-06-08 12:29:00,
2013-06-08 08:34:00,65.7,65.4,29.44,South,180,1.2,0.0,99,0.01,CLR,FEW,0.46,WeatherDisplay:10.37,2013-06-08 12:34:00,
2013-06-08 08:39:00,66.2,65.9,29.43,South,180,1.2,0.0,99,0.01,CLR,FEW,0.46,WeatherDisplay:10.37,2013-06-08 12:39:00,
2013-06-08 08:44:00,65.8,65.6,29.44,South,180,1.2,0.0,99,0.01,CLR,FEW,0.46,WeatherDisplay:10.37,2013-06-08 12:44:00,
2013-06-08 08:49:00,66.4,66.1,29.44,North,0,1.2,0.0,99,0.00,CLR,FEW,0.46,WeatherDisplay:10.37,2013-06-08 12:49:00,
2013-06-08 08:54:00,66.9,66.6,29.44,SE,135,3.5,3.5,99,0.00,CLR,FEW,0.46,WeatherDisplay:10.37,2013-06-08 12:54:00,
2013-06-08 08:59:00,68.2,67.9,29.44,SE,135,1.2,0.0,99,0.00,CLR,FEW,0.46,WeatherDisplay:10.37,2013-06-08 12:59:00,
2013-06-08 09:04:00,69.6,69.3,29.45,NW,315,1.2,0.0,99,0.00,CLR,FEW,0.46,WeatherDisplay:10.37,2013-06-08 13:04:00,
2013-06-08 09:09:00,70.0,69.1,29.45,NE,45,0.0,0.0,97,0.00,CLR,FEW,0.46,WeatherDisplay:10.37,2013-06-08 13:09:00,
2013-06-08 09:14:00,70.0,68.5,29.45,NW,315,1.2,0.0,95,0.00,CLR,FEW,0.46,WeatherDisplay:10.37,2013-06-08 13:14:00,
2013-06-08 09:19:00,70.3,68.5,29.45,South,180,1.2,0.0,94,0.00,CLR,FEW,0.46,WeatherDisplay:10.37,2013-06-08 13:19:00,
2013-06-08 09:24:00,71.4,69.3,29.45,SE,135,0.0,0.0,93,0.00,CLR,FEW,0.46,WeatherDisplay:10.37,2013-06-08 13:24:00,
2013-06-08 09:29:00,71.8,68.7,29.46,SE,135,0.0,0.0,90,0.00,CLR,FEW,0.46,WeatherDisplay:10.37,2013-06-08 13:29:00,
2013-06-08 09:34:00,72.1,67.0,29.46,SW,225,1.2,0.0,84,0.00,CLR,FEW,0.46,WeatherDisplay:10.37,2013-06-08 13:34:00,
2013-06-08 09:39:00,73.2,68.1,29.46,East,90,1.2,0.0,84,0.00,CLR,FEW,0.46,WeatherDisplay:10.37,2013-06-08 13:39:00,
2013-06-08 09:44:00,74.1,68.3,29.46,SE,135,2.3,0.0,82,0.00,CLR,FEW,0.46,WeatherDisplay:10.37,2013-06-08 13:44:00,
2013-06-08 09:49:00,75.0,69.9,29.47,SE,135,1.2,0.0,84,0.00,CLR,FEW,0.46,WeatherDisplay:10.37,2013-06-08 13:49:00,
2013-06-08 09:54:00,75.6,68.2,29.47,South,180,1.2,0.0,78,0.00,CLR,FEW,0.46,WeatherDisplay:10.37,2013-06-08 13:54:00,
2013-06-08 09:59:00,76.1,68.0,29.46,SE,135,1.2,0.0,76,0.00,CLR,FEW,0.46,WeatherDisplay:10.37,2013-06-08 13:59:00,
2013-06-08 10:04:00,76.5,68.3,29.46,SE,135,1.2,0.0,76,0.00,CLR,FEW,0.46,WeatherDisplay:10.37,2013-06-08 14:04:00,
2013-06-08 10:09:00,76.3,65.8,29.46,NW,315,1.2,0.0,70,0.00,CLR,FEW,0.46,WeatherDisplay:10.37,2013-06-08 14:09:00,
2013-06-08 10:14:00,76.5,67.2,29.47,South,180,1.2,0.0,73,0.00,CLR,FEW,0.46,WeatherDisplay:10.37,2013-06-08 14:14:00,
2013-06-08 10:19:00,77.2,65.8,29.47,SE,135,1.2,1.2,68,0.00,CLR,FEW,0.46,WeatherDisplay:10.37,2013-06-08 14:19:00,
2013-06-08 10:24:00,77.4,65.5,29.47,SE,135,1.2,0.0,67,0.00,CLR,FEW,0.46,WeatherDisplay:10.37,2013-06-08 14:24:00,
2013-06-08 10:29:00,78.1,65.8,29.47,SE,135,1.2,0.0,66,0.00,CLR,FEW,0.46,WeatherDisplay:10.37,2013-06-08 14:29:00,
2013-06-08 10:34:00,78.3,66.0,29.47,SE,135,1.2,0.0,66,0.00,CLR,FEW,0.46,WeatherDisplay:10.37,2013-06-08 14:34:00,
2013-06-08 10:40:00,78.3,65.1,29.47,SE,135,1.2,0.0,64,0.00,CLR,FEW,0.46,WeatherDisplay:10.37,2013-06-08 14:40:00,
2013-06-08 10:45:00,78.4,65.2,29.47,NW,315,1.2,0.0,64,0.00,CLR,FEW,0.46,WeatherDisplay:10.37,2013-06-08 14:45:00,
2013-06-08 10:50:00,78.6,65.4,29.47,SE,135,1.2,0.0,64,0.00,CLR,FEW,0.46,WeatherDisplay:10.37,2013-06-08 14:50:00,
2013-06-08 10:55:00,78.4,64.8,29.46,South,180,1.2,0.0,63,0.00,CLR,FEW,0.46,WeatherDisplay:10.37,2013-06-08 14:55:00,
2013-06-08 11:00:00,78.6,65.4,29.46,East,90,1.2,1.2,64,0.00,CLR,FEW,0.46,WeatherDisplay:10.37,2013-06-08 15:00:00,
2013-06-08 11:05:00,78.8,64.2,29.46,NW,315,1.2,0.0,61,0.00,CLR,FEW,0.46,WeatherDisplay:10.37,2013-06-08 15:05:00,
2013-06-08 11:10:00,79.0,65.8,29.46,NE,45,1.2,0.0,64,0.00,CLR,FEW,0.46,WeatherDisplay:10.37,2013-06-08 15:10:00,
2013-06-08 11:15:00,79.7,66.4,29.46,NE,45,1.2,1.2,64,0.00,CLR,FEW,0.46,WeatherDisplay:10.37,2013-06-08 15:15:00,
2013-06-08 11:20:00,80.4,66.7,29.46,South,180,2.3,0.0,63,0.00,CLR,FEW,0.46,WeatherDisplay:10.37,2013-06-08 15:20:00,
2013-06-08 11:25:00,80.1,65.9,29.46,North,0,2.3,2.3,62,0.00,CLR,FEW,0.46,WeatherDisplay:10.37,2013-06-08 15:25:00,
2013-06-08 11:30:00,80.4,66.7,29.46,East,90,1.2,0.0,63,0.00,CLR,FEW,0.46,WeatherDisplay:10.37,2013-06-08 15:30:00,
2013-06-08 11:35:00,80.1,65.4,29.47,NW,315,1.2,0.0,61,0.00,CLR,FEW,0.46,WeatherDisplay:10.37,2013-06-08 15:35:00,
2013-06-08 11:40:00,79.5,66.3,29.47,SE,135,2.3,2.3,64,0.00,CLR,FEW,0.46,WeatherDisplay:10.37,2013-06-08 15:40:00,
2013-06-08 11:45:00,79.3,67.0,29.46,NE,45,2.3,2.3,66,0.00,CLR,FEW,0.46,WeatherDisplay:10.37,2013-06-08 15:45:00,
2013-06-08 11:50:00,80.2,67.4,29.47,South,180,2.3,2.3,65,0.00,CLR,FEW,0.46,WeatherDisplay:10.37,2013-06-08 15:50:00,
2013-06-08 11:55:00,80.6,66.8,29.47,SE,135,2.3,2.3,63,0.00,CLR,FEW,0.46,WeatherDisplay:10.37,2013-06-08 15:55:00,
2013-06-08 12:00:00,80.8,66.5,29.47,South,180,2.3,2.3,62,0.00,CLR,FEW,0.46,WeatherDisplay:10.37,2013-06-08 16:00:00,
2013-06-08 12:05:00,81.9,68.9,29.47,SSE,158,2.3,2.3,65,0.00,CLR,FEW,0.46,WeatherDisplay:10.37,2013-06-08 16:05:00,
2013-06-08 12:10:00,82.0,67.7,29.48,SW,225,2.3,2.3,62,0.00,CLR,FEW,0.46,WeatherDisplay:10.37,2013-06-08 16:10:00,
2013-06-08 12:15:00,80.6,66.8,29.48,SW,225,3.5,3.5,63,0.00,CLR,FEW,0.46,WeatherDisplay:10.37,2013-06-08 16:15:00,
2013-06-08 12:20:00,80.2,67.0,29.48,SE,135,3.5,3.5,64,0.00,CLR,FEW,0.46,WeatherDisplay:10.37,2013-06-08 16:20:00,
2013-06-08 12:25:00,80.4,68.5,29.48,East,90,2.3,2.3,67,0.00,CLR,FEW,0.46,WeatherDisplay:10.37,2013-06-08 16:25:00,
2013-06-08 12:30:00,80.4,67.1,29.48,SE,135,2.3,2.3,64,0.00,CLR,FEW,0.46,WeatherDisplay:10.37,2013-06-08 16:30:00,
2013-06-08 12:35:00,78.6,66.3,29.49,NE,45,2.2,2.2,66,0.00,CLR,FEW,0.46,WeatherDisplay:10.37,2013-06-08 16:35:00,
2013-06-08 12:40:00,79.7,67.3,29.48,East,90,3.5,0.0,66,0.00,CLR,FEW,0.46,WeatherDisplay:10.37,2013-06-08 16:40:00,
2013-06-08 12:45:00,81.1,68.3,29.49,South,180,2.3,2.3,65,0.00,CLR,FEW,0.46,WeatherDisplay:10.37,2013-06-08 16:45:00,
2013-06-08 12:50:00,81.1,67.3,29.48,NW,315,1.2,1.2,63,0.00,CLR,FEW,0.46,WeatherDisplay:10.37,2013-06-08 16:50:00,
2013-06-08 12:55:00,81.7,67.9,29.48,NW,315,3.5,3.5,63,0.00,CLR,FEW,0.46,WeatherDisplay:10.37,2013-06-08 16:55:00,
2013-06-08 13:00:00,81.3,66.6,29.49,NE,45,1.2,0.0,61,0.00,CLR,FEW,0.46,WeatherDisplay:10.37,2013-06-08 17:00:00,
2013-06-08 13:05:00,81.9,67.1,29.48,NW,315,2.3,2.3,61,0.00,CLR,FEW,0.46,WeatherDisplay:10.37,2013-06-08 17:05:00,
2013-06-08 13:10:00,82.2,68.4,29.49,East,90,3.5,3.5,63,0.00,CLR,FEW,0.46,WeatherDisplay:10.37,2013-06-08 17:10:00,
2013-06-08 13:15:00,83.1,67.3,29.48,North,0,1.2,1.2,59,0.00,CLR,FEW,0.46,WeatherDisplay:10.37,2013-06-08 17:15:00,
2013-06-08 13:20:00,83.3,68.9,29.47,SE,135,2.3,2.3,62,0.00,CLR,FEW,0.46,WeatherDisplay:10.37,2013-06-08 17:20:00,
2013-06-08 13:25:00,83.8,68.0,29.47,NE,45,3.5,3.5,59,0.00,CLR,FEW,0.46,WeatherDisplay:10.37,2013-06-08 17:25:00,
2013-06-08 13:30:00,82.8,67.0,29.45,East,90,3.5,0.0,59,0.00,CLR,FEW,0.46,WeatherDisplay:10.37,2013-06-08 17:30:00,
2013-06-08 13:35:00,84.0,69.1,29.44,SE,135,2.3,2.3,61,0.00,CLR,FEW,0.46,WeatherDisplay:10.37,2013-06-08 17:35:00,
2013-06-08 13:40:00,84.9,68.0,29.42,SW,225,3.5,0.0,57,0.00,CLR,FEW,0.46,WeatherDisplay:10.37,2013-06-08 17:40:00,
2013-06-08 13:45:00,84.2,66.8,29.42,NW,315,1.2,1.2,56,0.00,CLR,FEW,0.46,WeatherDisplay:10.37,2013-06-08 17:45:00,
2013-06-08 13:50:00,84.4,67.5,29.42,SE,135,2.3,0.0,57,0.00,CLR,FEW,0.46,WeatherDisplay:10.37,2013-06-08 17:50:00,
2013-06-08 13:55:00,84.0,66.6,29.43,SE,135,4.6,4.6,56,0.00,CLR,FEW,0.46,WeatherDisplay:10.37,2013-06-08 17:55:00,
2013-06-08 14:00:00,83.5,67.1,29.42,West,270,3.5,3.5,58,0.00,CLR,FEW,0.46,WeatherDisplay:10.37,2013-06-08 18:00:00,
2013-06-08 14:05:00,84.4,68.5,29.41,East,90,2.3,2.3,59,0.00,CLR,FEW,0.46,WeatherDisplay:10.37,2013-06-08 18:05:00,
2013-06-08 14:10:00,84.0,66.6,29.41,SE,135,3.5,0.0,56,0.00,CLR,FEW,0.46,WeatherDisplay:10.37,2013-06-08 18:10:00,
2013-06-08 14:15:00,83.7,66.3,29.41,SE,135,1.2,1.2,56,0.00,CLR,FEW,0.46,WeatherDisplay:10.37,2013-06-08 18:15:00,
2013-06-08 14:20:00,83.8,68.0,29.42,South,180,2.3,0.0,59,0.00,CLR,FEW,0.46,WeatherDisplay:10.37,2013-06-08 18:20:00,
2013-06-08 14:25:00,84.0,67.7,29.42,SW,225,3.5,3.5,58,0.00,CLR,FEW,0.46,WeatherDisplay:10.37,2013-06-08 18:25:00,
2013-06-08 14:30:00,85.3,67.3,29.40,SW,225,2.3,0.0,55,0.00,CLR,FEW,0.46,WeatherDisplay:10.37,2013-06-08 18:30:00,
2013-06-08 14:35:00,86.4,67.2,29.40,SE,135,1.2,1.2,53,0.00,CLR,FEW,0.46,WeatherDisplay:10.37,2013-06-08 18:35:00,
2013-06-08 14:40:00,85.6,68.1,29.40,SE,135,3.5,3.5,56,0.00,CLR,FEW,0.46,WeatherDisplay:10.37,2013-06-08 18:40:00,
2013-06-08 14:45:00,84.9,68.5,29.42,SE,135,1.2,0.0,58,0.00,CLR,FEW,0.46,WeatherDisplay:10.37,2013-06-08 18:45:00,
2013-06-08 14:50:00,85.8,68.8,29.42,SE,135,2.3,2.3,57,0.00,CLR,FEW,0.46,WeatherDisplay:10.37,2013-06-08 18:50:00,
2013-06-08 14:55:00,85.6,67.6,29.42,SE,135,2.3,2.3,55,0.00,CLR,FEW,0.46,WeatherDisplay:10.37,2013-06-08 18:55:00,
2013-06-08 15:00:00,83.5,66.1,29.42,South,180,2.3,2.3,56,0.00,CLR,FEW,0.46,WeatherDisplay:10.37,2013-06-08 19:00:00,
2013-06-08 15:05:00,82.6,66.3,29.42,SE,135,1.2,1.2,58,0.00,CLR,FEW,0.46,WeatherDisplay:10.37,2013-06-08 19:05:00,
2013-06-08 15:10:00,81.7,67.4,29.44,East,90,1.2,1.2,62,0.00,CLR,FEW,0.46,WeatherDisplay:10.37,2013-06-08 19:10:00,
2013-06-08 15:15:00,81.3,67.1,29.44,SE,135,2.3,0.0,62,0.00,CLR,FEW,0.46,WeatherDisplay:10.37,2013-06-08 19:15:00,
2013-06-08 15:20:00,81.9,68.0,29.44,SE,135,3.5,3.5,63,0.00,CLR,FEW,0.46,WeatherDisplay:10.37,2013-06-08 19:20:00,
2013-06-08 15:25:00,81.9,67.1,29.45,South,180,2.3,2.3,61,0.00,CLR,FEW,0.46,WeatherDisplay:10.37,2013-06-08 19:25:00,
2013-06-08 15:30:00,81.7,66.9,29.45,North,0,1.2,0.0,61,0.00,CLR,FEW,0.46,WeatherDisplay:10.37,2013-06-08 19:30:00,
2013-06-08 15:35:00,81.5,67.2,29.45,South,180,1.2,0.0,62,0.00,CLR,FEW,0.46,WeatherDisplay:10.37,2013-06-08 19:35:00,
2013-06-08 15:40:00,81.1,67.3,29.45,NE,45,1.2,0.0,63,0.00,CLR,FEW,0.46,WeatherDisplay:10.37,2013-06-08 19:40:00,
2013-06-08 15:45:00,80.4,67.1,29.46,SE,135,1.2,0.0,64,0.00,CLR,FEW,0.46,WeatherDisplay:10.37,2013-06-08 19:45:00,
2013-06-08 15:50:00,80.2,67.0,29.46,NE,45,1.2,0.0,64,0.00,CLR,FEW,0.46,WeatherDisplay:10.37,2013-06-08 19:50:00,
2013-06-08 15:55:00,80.2,67.8,29.47,North,0,1.2,0.0,66,0.00,CLR,FEW,0.46,WeatherDisplay:10.37,2013-06-08 19:55:00,
2013-06-08 16:00:00,79.9,67.5,29.47,East,90,1.2,0.0,66,0.00,CLR,FEW,0.46,WeatherDisplay:10.37,2013-06-08 20:00:00,
2013-06-08 16:05:00,79.5,67.6,29.47,NW,315,1.2,0.0,67,0.00,CLR,FEW,0.46,WeatherDisplay:10.37,2013-06-08 20:05:00,
2013-06-08 16:10:00,79.2,67.3,29.47,SE,135,1.2,0.0,67,0.00,CLR,FEW,0.46,WeatherDisplay:10.37,2013-06-08 20:10:00,
2013-06-08 16:15:00,79.2,66.8,29.48,SE,135,1.2,0.0,66,0.00,CLR,FEW,0.46,WeatherDisplay:10.37,2013-06-08 20:15:00,
2013-06-08 16:20:00,79.2,68.9,29.47,SE,135,1.2,0.0,71,0.00,CLR,FEW,0.46,WeatherDisplay:10.37,2013-06-08 20:20:00,
2013-06-08 16:26:00,79.0,67.5,29.48,SE,135,0.0,0.0,68,0.00,CLR,FEW,0.46,WeatherDisplay:10.37,2013-06-08 20:26:00,
2013-06-08 16:31:00,79.3,67.9,29.48,SE,135,1.2,0.0,68,0.00,CLR,FEW,0.46,WeatherDisplay:10.37,2013-06-08 20:31:00,
2013-06-08 16:36:00,79.7,69.0,29.48,SE,135,0.0,0.0,70,0.00,CLR,FEW,0.46,WeatherDisplay:10.37,2013-06-08 20:36:00,
2013-06-08 16:41:00,80.1,69.8,29.48,SE,135,0.0,0.0,71,0.00,CLR,FEW,0.46,WeatherDisplay:10.37,2013-06-08 20:41:00,
2013-06-08 16:46:00,80.6,69.9,29.48,SE,135,1.2,1.2,70,0.00,CLR,FEW,0.46,WeatherDisplay:10.37,2013-06-08 20:46:00,
2013-06-08 16:51:00,81.9,68.9,29.48,SE,135,2.3,2.3,65,0.00,CLR,FEW,0.46,WeatherDisplay:10.37,2013-06-08 20:51:00,
2013-06-08 16:56:00,81.5,69.5,29.48,SE,135,0.0,0.0,67,0.00,CLR,FEW,0.46,WeatherDisplay:10.37,2013-06-08 20:56:00,
2013-06-08 17:01:00,81.5,69.0,29.48,South,180,2.3,2.3,66,0.00,CLR,FEW,0.46,WeatherDisplay:10.37,2013-06-08 21:01:00,
2013-06-08 17:06:00,80.6,68.6,29.48,South,180,1.2,0.0,67,0.00,CLR,FEW,0.46,WeatherDisplay:10.37,2013-06-08 21:06:00,
2013-06-08 17:11:00,80.6,68.6,29.48,East,90,1.2,0.0,67,0.00,CLR,FEW,0.46,WeatherDisplay:10.37,2013-06-08 21:11:00,
2013-06-08 17:16:00,81.0,69.4,29.48,East,90,0.0,0.0,68,0.00,CLR,FEW,0.46,WeatherDisplay:10.37,2013-06-08 21:16:00,
2013-06-08 17:21:00,81.1,69.6,29.48,South,180,1.2,0.0,68,0.00,CLR,FEW,0.46,WeatherDisplay:10.37,2013-06-08 21:21:00,
2013-06-08 17:26:00,81.3,69.3,29.48,SE,135,1.2,1.2,67,0.00,CLR,FEW,0.46,WeatherDisplay:10.37,2013-06-08 21:26:00,
2013-06-08 17:31:00,80.6,69.5,29.49,SW,225,1.2,0.0,69,0.00,CLR,FEW,0.46,WeatherDisplay:10.37,2013-06-08 21:31:00,
2013-06-08 17:36:00,80.4,70.2,29.49,SE,135,1.2,1.2,71,0.00,CLR,FEW,0.46,WeatherDisplay:10.37,2013-06-08 21:36:00,
2013-06-08 17:41:00,81.1,70.4,29.49,SE,135,1.2,0.0,70,0.00,CLR,FEW,0.46,WeatherDisplay:10.37,2013-06-08 21:41:00,
2013-06-08 17:46:00,81.3,69.3,29.49,North,0,1.2,0.0,67,0.00,CLR,FEW,0.46,WeatherDisplay:10.37,2013-06-08 21:46:00,
2013-06-08 17:51:00,81.1,70.0,29.50,NE,45,1.2,0.0,69,0.00,CLR,FEW,0.46,WeatherDisplay:10.37,2013-06-08 21:51:00,
2013-06-08 17:56:00,81.5,71.2,29.49,SE,135,1.2,0.0,71,0.00,CLR,FEW,0.46,WeatherDisplay:10.37,2013-06-08 21:56:00,
2013-06-08 18:01:00,80.6,68.6,29.49,NE,45,1.2,0.0,67,0.00,CLR,FEW,0.46,WeatherDisplay:10.37,2013-06-08 22:01:00,
2013-06-08 18:06:00,80.6,69.9,29.50,West,270,1.2,0.0,70,0.00,CLR,FEW,0.46,WeatherDisplay:10.37,2013-06-08 22:06:00,
2013-06-08 18:11:00,82.4,70.3,29.50,SE,135,1.2,0.0,67,0.00,CLR,FEW,0.46,WeatherDisplay:10.37,2013-06-08 22:11:00,
2013-06-08 18:16:00,84.7,70.7,29.50,NE,45,1.2,0.0,63,0.00,CLR,FEW,0.46,WeatherDisplay:10.37,2013-06-08 22:16:00,
2013-06-08 18:22:00,86.9,69.8,29.50,North,0,1.2,0.0,57,0.00,CLR,FEW,0.46,WeatherDisplay:10.37,2013-06-08 22:22:00,
2013-06-08 18:27:00,87.3,69.1,29.51,South,180,1.2,0.0,55,0.00,CLR,FEW,0.46,WeatherDisplay:10.37,2013-06-08 22:27:00,
2013-06-08 18:32:00,87.6,70.0,29.51,South,180,1.2,0.0,56,0.00,CLR,FEW,0.46,WeatherDisplay:10.37,2013-06-08 22:32:00,
2013-06-08 18:37:00,85.3,68.8,29.50,North,0,1.2,0.0,58,0.00,CLR,FEW,0.46,WeatherDisplay:10.37,2013-06-08 22:37:00,
2013-06-08 18:42:00,82.8,68.4,29.51,SE,135,1.2,0.0,62,0.00,CLR,FEW,0.46,WeatherDisplay:10.37,2013-06-08 22:42:00,
2013-06-08 18:47:00,81.3,68.0,29.51,South,180,1.2,0.0,64,0.00,CLR,FEW,0.46,WeatherDisplay:10.37,2013-06-08 22:47:00,
2013-06-08 18:52:00,80.2,67.8,29.51,SW,225,1.2,0.0,66,0.00,CLR,FEW,0.46,WeatherDisplay:10.37,2013-06-08 22:52:00,
2013-06-08 18:57:00,79.7,68.2,29.51,SE,135,1.2,0.0,68,0.00,CLR,FEW,0.46,WeatherDisplay:10.37,2013-06-08 22:57:00,
2013-06-08 19:02:00,79.3,68.7,29.52,South,180,1.2,0.0,70,0.00,CLR,FEW,0.46,WeatherDisplay:10.37,2013-06-08 23:02:00,
2013-06-08 19:07:00,79.2,68.5,29.52,East,90,0.0,0.0,70,0.00,CLR,FEW,0.46,WeatherDisplay:10.37,2013-06-08 23:07:00,
2013-06-08 19:12:00,79.2,69.4,29.51,East,90,1.2,0.0,72,0.00,CLR,FEW,0.46,WeatherDisplay:10.37,2013-06-08 23:12:00,
2013-06-08 19:17:00,79.2,69.8,29.52,East,90,1.2,0.0,73,0.00,CLR,FEW,0.46,WeatherDisplay:10.37,2013-06-08 23:17:00,
2013-06-08 19:22:00,79.2,69.8,29.52,East,90,0.0,0.0,73,0.00,CLR,FEW,0.46,WeatherDisplay:10.37,2013-06-08 23:22:00,
2013-06-08 19:27:00,79.2,69.8,29.52,East,90,0.0,0.0,73,0.00,CLR,FEW,0.46,WeatherDisplay:10.37,2013-06-08 23:27:00,
2013-06-08 19:32:00,79.2,69.8,29.52,East,90,0.0,0.0,73,0.00,CLR,FEW,0.46,WeatherDisplay:10.37,2013-06-08 23:32:00,
2013-06-08 19:37:00,79.0,69.6,29.52,SE,135,0.0,0.0,73,0.00,CLR,FEW,0.46,WeatherDisplay:10.37,2013-06-08 23:37:00,
2013-06-08 19:42:00,78.8,69.4,29.53,North,0,1.2,0.0,73,0.00,CLR,FEW,0.46,WeatherDisplay:10.37,2013-06-08 23:42:00,
2013-06-08 19:47:00,78.6,69.6,29.53,South,180,1.2,0.0,74,0.00,CLR,FEW,0.46,WeatherDisplay:10.37,2013-06-08 23:47:00,
2013-06-08 19:52:00,78.4,69.9,29.53,South,180,1.2,0.0,75,0.00,CLR,FEW,0.46,WeatherDisplay:10.37,2013-06-08 23:52:00,
2013-06-08 19:57:00,78.1,69.9,29.53,South,180,1.2,0.0,76,0.00,CLR,FEW,0.46,WeatherDisplay:10.37,2013-06-08 23:57:00,
2013-06-08 20:02:00,77.7,69.9,29.54,South,180,1.2,0.0,77,0.00,CLR,FEW,0.46,WeatherDisplay:10.37,2013-06-09 00:02:00,
2013-06-08 20:07:00,77.5,70.5,29.54,South,180,0.0,0.0,79,0.00,CLR,FEW,0.46,WeatherDisplay:10.37,2013-06-09 00:07:00,
2013-06-08 20:12:00,77.4,70.3,29.54,South,180,0.0,0.0,79,0.00,CLR,FEW,0.46,WeatherDisplay:10.37,2013-06-09 00:12:00,
2013-06-08 20:17:00,77.0,70.4,29.54,South,180,0.0,0.0,80,0.00,CLR,FEW,0.46,WeatherDisplay:10.37,2013-06-09 00:17:00,
2013-06-08 20:22:00,76.8,70.5,29.55,SE,135,1.2,0.0,81,0.00,CLR,FEW,0.46,WeatherDisplay:10.37,2013-06-09 00:22:00,
2013-06-08 20:27:00,76.6,70.7,29.55,West,270,1.2,0.0,82,0.00,CLR,FEW,0.46,WeatherDisplay:10.37,2013-06-09 00:27:00,
2013-06-08 20:32:00,76.3,70.7,29.55,South,180,0.0,0.0,83,0.00,CLR,FEW,0.46,WeatherDisplay:10.37,2013-06-09 00:32:00,
2013-06-08 20:37:00,75.9,70.4,29.55,South,180,1.2,0.0,83,0.00,CLR,FEW,0.46,WeatherDisplay:10.37,2013-06-09 00:37:00,
2013-06-08 20:42:00,75.6,70.4,29.55,SE,135,1.2,0.0,84,0.00,CLR,FEW,0.46,WeatherDisplay:10.37,2013-06-09 00:42:00,
2013-06-08 20:47:00,75.4,70.2,29.56,SE,135,0.0,0.0,84,0.00,CLR,FEW,0.46,WeatherDisplay:10.37,2013-06-09 00:47:00,
2013-06-08 20:52:00,75.2,70.0,29.56,South,180,1.2,0.0,84,0.00,CLR,FEW,0.46,WeatherDisplay:10.37,2013-06-09 00:52:00,
2013-06-08 20:57:00,75.0,70.2,29.56,South,180,0.0,0.0,85,0.00,CLR,FEW,0.46,WeatherDisplay:10.37,2013-06-09 00:57:00,
2013-06-08 21:02:00,74.7,70.2,29.56,SE,135,0.7,0.0,86,0.00,CLR,FEW,0.46,WeatherDisplay:10.37,2013-06-09 01:02:00,
2013-06-08 21:07:00,74.5,70.0,29.56,SE,135,1.2,0.0,86,0.00,CLR,FEW,0.46,WeatherDisplay:10.37,2013-06-09 01:07:00,
2013-06-08 21:12:00,74.3,70.2,29.56,South,180,1.2,0.0,87,0.00,CLR,FEW,0.46,WeatherDisplay:10.37,2013-06-09 01:12:00,
2013-06-08 21:17:00,74.3,70.2,29.57,North,0,1.2,0.0,87,0.00,CLR,FEW,0.46,WeatherDisplay:10.37,2013-06-09 01:17:00,
2013-06-08 21:22:00,74.3,69.8,29.57,NE,45,1.2,0.0,86,0.00,CLR,FEW,0.46,WeatherDisplay:10.37,2013-06-09 01:22:00,
2013-06-08 21:27:00,74.7,70.2,29.57,SE,135,1.2,1.2,86,0.00,CLR,FEW,0.46,WeatherDisplay:10.37,2013-06-09 01:27:00,
2013-06-08 21:33:00,74.8,70.4,29.58,South,180,1.2,0.0,86,0.00,CLR,FEW,0.46,WeatherDisplay:10.37,2013-06-09 01:33:00,
2013-06-08 21:38:00,74.7,70.2,29.58,East,90,1.2,0.0,86,0.00,CLR,FEW,0.46,WeatherDisplay:10.37,2013-06-09 01:38:00,
2013-06-08 21:43:00,74.5,70.0,29.58,SE,135,1.2,0.0,86,0.00,CLR,FEW,0.46,WeatherDisplay:10.37,2013-06-09 01:43:00,
2013-06-08 21:48:00,74.7,70.2,29.58,West,270,3.5,0.0,86,0.00,CLR,FEW,0.46,WeatherDisplay:10.37,2013-06-09 01:48:00,
2013-06-08 21:53:00,74.8,70.0,29.58,SSE,158,1.2,0.0,85,0.00,CLR,FEW,0.46,WeatherDisplay:10.37,2013-06-09 01:53:00,
2013-06-08 21:58:00,74.8,70.0,29.58,South,180,3.5,3.5,85,0.00,CLR,FEW,0.46,WeatherDisplay:10.37,2013-06-09 01:58:00,
2013-06-08 22:03:00,74.8,70.0,29.59,NE,45,2.3,2.3,85,0.00,CLR,FEW,0.46,WeatherDisplay:10.37,2013-06-09 02:03:00,
2013-06-08 22:08:00,75.0,69.9,29.59,North,0,1.2,0.0,84,0.00,CLR,FEW,0.46,WeatherDisplay:10.37,2013-06-09 02:08:00,
2013-06-08 22:13:00,75.0,69.9,29.59,South,180,1.2,0.0,84,0.00,CLR,FEW,0.46,WeatherDisplay:10.37,2013-06-09 02:13:00,
2013-06-08 22:18:00,74.8,69.7,29.59,SW,225,1.2,0.0,84,0.00,CLR,FEW,0.46,WeatherDisplay:10.37,2013-06-09 02:18:00,
2013-06-08 22:23:00,74.8,70.0,29.60,SE,135,1.2,0.0,85,0.00,CLR,FEW,0.46,WeatherDisplay:10.37,2013-06-09 02:23:00,
2013-06-08 22:28:00,74.7,69.8,29.60,South,180,1.2,0.0,85,0.00,CLR,FEW,0.46,WeatherDisplay:10.37,2013-06-09 02:28:00,
2013-06-08 22:33:00,74.7,69.8,29.60,East,90,1.2,0.0,85,0.00,CLR,FEW,0.46,WeatherDisplay:10.37,2013-06-09 02:33:00,
2013-06-08 22:38:00,74.5,69.7,29.60,SE,135,1.2,0.0,85,0.00,CLR,FEW,0.46,WeatherDisplay:10.37,2013-06-09 02:38:00,
2013-06-08 22:43:00,74.5,69.7,29.59,SSE,158,2.3,0.0,85,0.00,CLR,FEW,0.46,WeatherDisplay:10.37,2013-06-09 02:43:00,
2013-06-08 22:48:00,74.5,69.7,29.59,East,90,1.2,1.2,85,0.00,CLR,FEW,0.46,WeatherDisplay:10.37,2013-06-09 02:48:00,
2013-06-08 22:53:00,74.5,69.7,29.59,SW,225,1.2,0.0,85,0.00,CLR,FEW,0.46,WeatherDisplay:10.37,2013-06-09 02:53:00,
2013-06-08 22:58:00,74.5,69.7,29.60,East,90,1.2,0.0,85,0.00,CLR,FEW,0.46,WeatherDisplay:10.37,2013-06-09 02:58:00,
2013-06-08 23:03:00,74.5,69.7,29.59,North,0,1.2,0.0,85,0.00,CLR,FEW,0.46,WeatherDisplay:10.37,2013-06-09 03:03:00,
2013-06-08 23:08:00,74.3,69.5,29.59,NW,315,2.3,0.0,85,0.00,CLR,FEW,0.46,WeatherDisplay:10.37,2013-06-09 03:08:00,
2013-06-08 23:13:00,74.3,69.5,29.59,SW,225,1.2,0.0,85,0.00,CLR,FEW,0.46,WeatherDisplay:10.37,2013-06-09 03:13:00,
2013-06-08 23:18:00,74.1,69.3,29.60,NW,315,1.2,0.0,85,0.00,CLR,FEW,0.46,WeatherDisplay:10.37,2013-06-09 03:18:00,
2013-06-08 23:23:00,74.1,69.3,29.59,NW,315,1.6,0.0,85,0.00,CLR,FEW,0.46,WeatherDisplay:10.37,2013-06-09 03:23:00,
2013-06-08 23:28:00,74.1,69.3,29.59,NW,315,1.2,0.0,85,0.00,CLR,FEW,0.46,WeatherDisplay:10.37,2013-06-09 03:28:00,
2013-06-08 23:33:00,74.1,69.3,29.59,NW,315,1.2,0.0,85,0.00,CLR,FEW,0.46,WeatherDisplay:10.37,2013-06-09 03:33:00,
2013-06-08 23:38:00,74.1,69.3,29.59,East,90,1.2,0.0,85,0.00,CLR,FEW,0.46,WeatherDisplay:10.37,2013-06-09 03:38:00,
2013-06-08 23:43:00,74.1,69.3,29.59,East,90,1.2,0.0,85,0.00,CLR,FEW,0.46,WeatherDisplay:10.37,2013-06-09 03:43:00,
2013-06-08 23:48:00,74.1,69.3,29.60,NW,315,1.2,0.0,85,0.00,CLR,FEW,0.46,WeatherDisplay:10.37,2013-06-09 03:48:00,
2013-06-08 23:53:00,73.9,69.1,29.59,North,0,1.2,0.0,85,0.00,CLR,FEW,0.46,WeatherDisplay:10.37,2013-06-09 03:53:00,
2013-06-08 23:58:00,73.9,69.1,29.59,NW,315,1.2,1.2,85,0.00,CLR,FEW,0.46,WeatherDisplay:10.37,2013-06-09 03:58:00,